Location: Caserío San Pedro de las Duenas
(40.8567°N, 4.3163°W)
Time: 05:40:16
(UTC+00:00)

Daily predictions for brighter satellites

Satellite Brightness Start Highest point End
(mag) Time Altitude Azimuth Time Altitude Azimuth Time Altitude Azimuth
CZ-3 R/B 4.4 01:21:59 10° WSW 02:27:44 51° SSE 02:36:56 10° ESE
CZ-3 Stage 3 4.4 03:27:43 46° SSE 03:27:43 46° SSE 03:47:28 10° ESE
COSMOS 2455 4.2 04:07:00 34° ENE 04:07:00 34° ENE 04:11:44 10° ESE
Cosmos 372 Rocket 4.4 04:50:47 57° SE 04:50:47 57° SE 04:54:55 10° SSE
Cosmos 1937 Rocket 4.5 04:49:25 36° NNE 04:50:41 43° ENE 04:55:32 10° SE
USA 59 Rocket 1.0 04:54:18 46° ESE 04:54:18 46° ESE 04:58:19 10° SE
Aureole 1 Rocket 4.2 04:53:29 49° NNW 04:55:48 88° WSW 05:03:16 10° SSE
COSMOS 2406 3.3 04:55:16 48° S 04:56:50 75° ESE 05:02:30 10° NNE
Cosmos 2082 Rocket 3.3 05:05:01 29° N 05:05:01 29° N 05:07:52 10° NNE
NOSS 2-1 (E) 4.2 05:04:17 50° ENE 05:04:17 50° ENE 05:08:46 10° SE
SL-16 R/B 3.4 05:01:03 20° N 05:04:29 38° ENE 05:09:42 10° SE
Cosmos 1606 Rocket 3.5 05:14:42 81° SE 05:14:42 81° SE 05:18:54 10° S
NOAA 12 4.3 05:15:00 10° NNE 05:20:16 69° ESE 05:25:29 10° S
NOSS 2-1 (C) 3.3 05:22:46 87° WNW 05:22:49 88° SW 05:27:52 10° SSE
BREEZE-M DEB (TANK) 3.2 05:24:36 36° NNE 05:24:36 36° NNE 05:28:51 10° E
Cosmos 1980 Rocket 3.4 05:26:44 24° SW 05:26:44 24° SW 05:29:29 10° SSW
SL-4 R/B 3.9 05:28:33 14° NNE 05:28:33 14° NNE 05:29:48 10° NE
Cosmos 2278 4.4 05:24:16 16° N 05:28:40 50° ENE 05:34:07 10° SE
Cosmos 2026 Rocket 4.0 05:25:24 10° S 05:31:25 79° E 05:37:31 10° N
FengYun 1-2 T 4.2 05:27:14 10° N 05:32:46 58° WNW 05:38:17 10° SSW
CZ-3C R/B 4.3 05:29:37 10° S 05:33:12 15° SE 05:40:38 10° ESE
Cosmos 2369 3.9 05:33:14 45° WNW 05:34:09 49° WSW 05:39:33 10° S
SWAS 4.2 05:39:03 59° WSW 05:39:10 60° WSW 05:43:07 10° SSE
Cosmos 1726 Rocket 3.3 05:38:11 42° NNW 05:39:30 70° W 05:43:39 10° S
Cosmos 841 Rocket 3.9 05:40:31 39° NW 05:40:31 39° NW 05:45:03 10° N
Tiangong -0.7 05:42:18 28° SSW 05:42:18 28° SSW 05:44:47 10° SE
NOSS 3-1 (C) 4.1 05:39:51 24° NW 05:44:59 77° WSW 05:54:06 10° SSE
COSMOS 2455 3.3 05:50:11 31° WNW 05:52:12 40° WSW 05:57:44 10° S
Cosmos 2360 Rocket 3.0 05:51:47 10° NNW 05:57:15 49° ENE 06:02:41 10° SE
Cosmos 1092 Rocket 3.9 05:52:00 10° SSW 05:58:17 74° W 06:04:32 10° N
Cosmos 1892 Rocket 3.8 05:54:15 10° SSW 05:58:24 44° WNW 06:02:38 10° N
Cosmos 2333 Rocket 2.4 05:53:02 11° NNW 05:58:35 76° ENE 06:04:18 10° SSE
COSMO-SKYMED 1 2.4 06:01:08 10° S 06:05:12 62° WSW 06:08:59 12° NNW
CZ-3 R/B 4.3 05:56:29 14° W 06:05:23 21° SW 06:11:51 10° S
Cosmos-2242 2.8 06:01:15 10° N 06:05:30 85° W 06:09:40 10° S
Meteor 2-2 Rocket 4.2 05:59:50 10° N 06:05:34 86° W 06:11:23 10° S
BREEZE-M DEB (TANK) 3.6 06:06:08 10° SW 06:08:48 40° SE 06:11:07 10° ENE
BREEZE-M DEB (TANK) 4.2 06:09:52 20° W 06:13:15 35° SW 06:16:24 10° SSE
Cosmos 2219 Rocket 3.4 06:09:21 10° N 06:14:42 41° ENE 06:19:58 10° SE
IRS-1D 4.1 06:10:56 10° N 06:15:22 32° WNW 06:19:51 10° SW
Cosmos 2322 Rocket 2.2 06:15:01 10° NNW 06:20:45 86° ENE 06:26:25 10° SSE
Meteor 2-6 Rocket 4.5 06:21:43 10° N 06:27:42 81° E 06:33:37 10° SSE
IGS 5A 3.3 06:26:05 10° N 06:30:02 63° WNW 06:33:59 10° SSW
Cosmos 1484 Rocket 2.7 06:27:58 10° N 06:31:13 42° WNW 06:34:24 10° SW
Cosmos 1602 Rocket 4.0 06:27:51 10° S 06:32:14 66° E 06:36:39 10° NNE
ATLAS 2AS CENTAUR R/B 3.1 06:25:35 10° SSW 06:32:40 73° ESE 06:39:33 10° NE
Cosmos 1437 Rocket 4.2 06:32:14 10° N 06:35:23 33° ENE 06:38:33 10° SE
SL-08 ROCKET BODY 4.3 06:30:38 10° SSW 06:36:28 75° W 06:42:19 10° N
Cosmos 2058 Rocket 3.7 06:33:17 10° NNW 06:37:17 34° W 06:41:13 10° SSW
Cosmos 1743 2.1 06:34:37 10° S 06:37:50 81° W 06:41:05 10° N
Cosmos 2333 4.3 06:32:55 10° NNW 06:38:42 86° ENE 06:44:22 10° SSE
USA 59 Rocket 2.0 06:40:01 11° W 06:42:10 14° WSW 06:44:52 10° SSW
ARIANE 5 R/B 3.3 06:38:33 10° NNE 06:43:43 60° ESE 06:48:51 10° S
Helios 1A Rocket 4.0 06:44:44 10° SW 06:47:01 17° W 06:49:19 10° NW
SL-16 R/B 3.0 06:43:30 10° NW 06:48:24 31° WSW 06:53:17 10° SSW
Okean 1 4.1 06:46:37 10° NW 06:49:32 24° W 06:52:27 10° SW
COSMOS 2428 4.4 06:46:59 10° N 06:51:58 30° NE 06:56:55 10° ESE
NOSS 3-1 (A) 4.3 06:45:34 10° NW 06:53:02 62° WSW 07:02:05 10° SSE
MOS 1 Rocket 3.8 06:56:12 10° NNE 07:01:36 83° ESE 07:06:49 10° S
